FW9692 Weather Reports


time (UTC)temp
C
wind
direction
speed
KPH
gust
KPH
rain 1hr
cm
rain 24hr
cm
rain mn
cm
humidity
%
barometer
mb
20260902101540 25 200 9.7 14.5 0.00 0.05 0.00 54 1001.2
20260902100034 25 185 11.3 12.9 0.00 0.05 0.00 55 1001.1
20260902094535 25 167 12.9 16.1 0.00 0.05 0.00 54 1001.1
20260902093033 25 182 12.9 14.5 0.00 0.05 0.00 53 1001.1
20260902091540 26 182 11.3 14.5 0.00 0.05 0.00 52 1001.1
20260902090028 26 182 17.7 25.7 0.00 0.05 0.00 52 1001.2
20260902084527 26 169 22.5 29.0 0.00 0.05 0.05 51 1001.1
20260902083028 26 169 22.5 25.7 0.00 0.05 0.05 51 1001.2
20260902081534 26 171 20.9 22.5 0.00 0.05 0.05 51 1001.2
20260902080022 27 165 22.5 27.4 0.00 0.05 0.05 49 1001.2
20260902074528 26 171 20.9 22.5 0.00 0.05 0.05 50 1001.2
20260902073023 27 173 12.9 16.1 0.00 0.05 0.05 49 1001.2
20260902071529 27 175 12.9 20.9 0.00 0.05 0.05 49 1001.1
20260902070027 27 178 19.3 25.7 0.00 0.05 0.05 49 1001.1
20260902064527 27 178 17.7 24.1 0.00 0.05 0.05 48 1001.3
20260902063022 27 192 16.1 20.9 0.00 0.05 0.05 48 1001.3
20260902061539 27 196 11.3 14.5 0.00 0.05 0.05 47 1001.4
20260902060033 28 202 8.0 17.7 0.00 0.05 0.05 46 1001.4
20260902054532 28 196 14.5 25.7 0.00 0.05 0.05 45 1001.3
20260902053034 28 177 24.1 37.0 0.00 0.05 0.05 45 1001.1
20260902051619 28 171 29.0 35.4 0.00 0.05 0.05 45 1001.0
20260902050019 28 154 29.0 37.0 0.00 0.05 0.05 45 1000.9
20260902044524 28 155 25.7 33.8 0.00 0.05 0.05 45 1000.9
20260902043030 29 160 30.6 38.6 0.00 0.05 0.05 44 1000.9
20260902041524 29 147 27.4 33.8 0.00 0.05 0.05 45 1001.0
20260902040030 29 153 25.7 35.4 0.00 0.05 0.05 45 1000.9
20260902034529 30 167 30.6 41.8 0.00 0.05 0.05 44 1000.9
20260902033034 30 164 24.1 33.8 0.03 0.05 0.05 43 1000.7
20260902031532 30 140 17.7 29.0 0.05 0.05 0.05 42 1000.5
20260902030019 30 161 32.2 35.4 0.05 0.05 0.05 42 1000.2
20260902024516 30 160 22.5 33.8 0.05 0.05 0.05 45 999.9
20260902023020 30 157 29.0 38.6 0.03 0.03 0.03 45 999.6
20260902021517 30 147 30.6 37.0 0.00 0.00 0.00 44 999.8
20260902020016 30 18 27.4 45.1 0.00 0.00 0.00 39 1000.0
20260902014532 30 336 24.1 33.8 0.00 0.00 0.00 44 999.9
20260902013015 31 291 20.9 33.8 0.00 0.00 0.00 43 999.7
20260902011523 31 326 25.7 35.4 0.00 0.00 0.00 41 999.4
20260902010014 33 265 11.3 22.5 0.00 0.00 0.00 33 999.4
20260902004515 33 182 16.1 27.4 0.00 0.00 0.00 32 999.1
20260902003020 33 163 24.1 37.0 0.00 0.00 0.00 32 998.8
20260902001521 33 184 32.2 40.2 0.00 0.00 0.00 32 998.7
20260902000016 34 141 33.8 48.3 0.00 0.00 0.00 31 998.5
20260901234531 35 144 29.0 45.1 0.00 0.00 0.00 30 998.4
20260901233010 35 144 24.1 32.2 0.00 0.00 0.00 27 998.2
20260901231511 35 146 16.1 30.6 0.00 0.00 0.00 28 998.2
20260901230008 35 137 20.9 35.4 0.00 0.00 0.00 28 998.2
20260901224549 35 144 17.7 33.8 0.00 0.00 0.00 28 998.2
20260901223027 35 121 9.7 30.6 0.00 0.00 0.00 29 998.3
20260901221521 35 137 12.9 25.7 0.00 0.00 0.00 28 998.5
20260901220018 35 156 14.5 32.2 0.00 0.00 0.00 29 998.6
20260901214515 34 98 9.7 37.0 0.00 0.00 0.00 29 998.7
20260901213014 34 123 24.1 32.2 0.00 0.00 0.00 29 998.8
20260901211513 34 77 14.5 22.5 0.00 0.00 0.00 30 999.1
20260901210009 34 118 19.3 37.0 0.00 0.00 0.00 30 999.3
20260901204503 35 133 20.9 32.2 0.00 0.00 0.00 30 999.6
20260901203123 34 51 16.1 40.2 0.00 0.00 0.00 31 1000.0
20260901201556 34 121 12.9 19.3 0.00 0.00 0.00 31 1000.2
20260901194502 33 105 9.7 27.4 0.00 0.00 0.00 32 1000.5
20260901193059 33 130 12.9 25.7 0.00 0.00 0.00 32 1000.6
20260901191556 33 111 8.0 22.5 0.00 0.00 0.00 33 1000.9
20260901190106 33 113 14.5 37.0 0.00 0.00 0.00 33 1001.1
20260901184530 33 279 3.2 22.5 0.00 0.00 0.00 34 1001.4
20260901183038 33 144 19.3 27.4 0.00 0.00 0.00 34 1001.6
20260901181559 32 146 8.0 24.1 0.00 0.00 0.00 35 1001.7
20260901180054 32 44 1.6 22.5 0.00 0.00 0.00 36 1001.9
20260901174551 31 211 12.9 22.5 0.00 0.00 0.00 37 1002.1
20260901173105 31 137 9.7 19.3 0.00 0.00 0.00 37 1002.1
20260901171548 31 194 9.7 19.3 0.00 0.00 0.00 37 1002.4
20260901170058 31 184 12.9 24.1 0.00 0.00 0.00 39 1002.5
20260901164605 30 202 12.9 20.9 0.00 0.00 0.00 40 1002.4
20260901163049 30 173 17.7 25.7 0.00 0.00 0.00 42 1002.5
20260901161529 30 160 14.5 24.1 0.00 0.00 0.00 43 1002.5
20260901160031 30 189 12.9 19.3 0.00 0.00 0.00 43 1002.5
20260901154528 29 210 6.4 12.9 0.00 0.00 0.00 45 1002.6
20260901153036 28 178 6.4 11.3 0.00 0.00 0.00 46 1002.5
20260901151522 28 189 8.0 12.9 0.00 0.00 0.00 49 1002.4
20260901150015 27 157 9.7 14.5 0.00 0.00 0.00 52 1002.5
20260901144524 26 178 11.3 16.1 0.00 0.00 0.00 54 1002.6
20260901143008 25 158 20.9 27.4 0.00 0.00 0.00 56 1002.6
20260901141511 25 155 22.5 29.0 0.00 0.00 0.00 57 1002.5
20260901140007 25 148 22.5 30.6 0.00 0.00 0.00 59 1002.6
20260901134508 24 149 19.3 25.7 0.00 0.00 0.00 60 1002.5
20260901133007 23 149 17.7 22.5 0.00 0.00 0.00 61 1002.4
20260901131508 23 144 17.7 22.5 0.00 0.00 0.00 62 1002.2
20260901130004 23 144 16.1 22.5 0.00 0.00 0.00 62 1002.1
20260901124502 23 144 16.1 20.9 0.00 0.00 0.00 62 1001.8
20260901123058 23 142 19.3 24.1 0.00 0.00 0.00 61 1001.5
20260901121610 23 139 17.7 22.5 0.00 0.00 0.00 61 1001.3
20260901120106 23 139 17.7 22.5 0.00 0.00 0.00 61 1001.2
20260901114601 23 144 20.9 25.7 0.00 0.00 0.00 61 1001.2
20260901113055 24 146 19.3 27.4 0.00 0.00 0.00 60 1001.1
20260901111554 24 140 20.9 25.7 0.00 0.00 0.00 60 1001.2
20260901110152 24 153 20.9 25.7 0.00 0.00 0.00 59 1001.1
20260901104551 25 142 20.9 25.7 0.00 0.00 0.00 58 1001.0
20260901103106 25 138 16.1 22.5 0.00 0.00 0.00 58 1000.8